Lapse_Rate
5.5 5.4 6.0 6.4 6.9 6.8 7.4 7.0 5.4 3.3 2.7 2.0 1.4 1.1 0.7 0.7 1.3 2.0 4.4 4.6 4.4 4.2
5.2 5.8 5.9 5.9 6.5 6.7 7.0 8.1 7.4 5.8 4.0 3.3 1.6 0.1 0.2 0.2 0.9 1.6 2.7 4.9 4.4 4.8
5.4 5.7 6.0 5.9 6.1 6.4 6.5 7.4 7.1 6.5 6.2 4.8 2.5 1.2 -0.7 -0.4 0.1 0.1 1.2 4.7 4.8 4.4
5.5 5.6 6.0 5.8 5.8 6.0 6.6 7.1 7.0 6.9 6.4 5.0 3.3 1.6 0.2 -0.5 -0.1 -0.4 0.4 1.6 4.8 4.7
5.7 5.6 5.4 5.6 5.7 6.1 6.5 7.0 7.0 7.1 6.4 5.2 4.2 2.2 -0.0 -0.1 -0.2 -0.5 -0.3 0.8 1.5 3.0
5.7 5.5 5.2 5.3 6.3 6.9 6.6 6.6 7.1 5.9 5.8 5.1 4.2 3.3 1.4 0.7 0.3 0.3 -0.1 0.3 0.9 1.5
5.6 5.6 5.2 5.6 7.0 6.7 6.6 6.7 6.5 5.6 5.2 4.6 3.9 3.0 1.8 1.4 1.8 1.5 1.4 1.6 1.5 1.9
5.9 6.0 5.7 5.8 7.2 6.3 6.6 6.7 5.9 5.6 4.1 3.5 3.5 2.5 1.7 1.1 2.1 2.1 2.3 1.8 0.9 0.6
6.1 6.1 5.9 6.9 6.7 6.5 6.7 6.4 6.5 5.3 4.3 3.2 2.8 1.7 1.9 2.0 3.0 3.2 1.8 0.7 0.4 0.9
6.2 6.1 6.6 6.8 6.4 6.1 6.2 6.9 5.8 4.6 3.8 3.1 2.9 1.4 1.7 1.8 4.1 3.3 2.1 0.4 0.1 0.5
6.2 6.1 6.0 6.5 5.5 5.9 6.2 6.4 5.0 4.1 3.5 2.8 3.4 2.4 2.8 3.4 4.8 3.8 3.1 1.9 0.7 0.4
6.2 6.0 6.8 6.0 5.0 5.1 4.8 4.4 4.1 4.0 3.3 2.7 2.2 3.0 2.7 4.6 4.6 4.5 3.8 3.3 1.7 0.6
6.4 6.2 6.5 5.1 4.5 4.1 4.2 4.5 4.4 3.9 3.1 3.9 2.4 2.9 3.2 3.3 4.2 4.5 4.1 3.6 2.8 1.1
6.4 6.3 6.0 4.9 4.2 3.5 3.5 4.0 3.7 3.6 3.1 3.1 3.1 2.7 3.6 3.2 3.2 3.8 3.5 2.9 2.3 2.0
Wind_Speed
7 4 5 6 7 6 6 7 14 14 14 14 14 12 10 6 6 7 5 8 5 3
6 7 6 7 6 6 6 7 11 13 10 13 12 13 9 6 7 7 6 7 6 5
6 7 6 6 7 9 9 10 9 10 8 9 9 11 11 7 8 8 6 3 7 7
6 7 6 5 6 8 9 9 9 9 7 9 10 10 10 10 8 9 8 8 3 7
6 7 6 5 7 10 9 10 8 7 8 10 10 11 11 10 9 9 9 8 7 8
6 7 6 5 8 8 9 8 7 8 9 9 10 11 11 10 9 8 8 7 8 8
6 7 6 6 8 8 8 9 9 9 9 9 10 11 10 10 8 8 7 6 5 6
6 6 5 7 7 8 7 8 8 9 9 9 10 10 13 9 8 8 7 9 11 8
6 5 7 7 7 7 8 8 10 9 9 10 9 19 19 14 8 9 10 10 10 9
6 4 6 5 7 8 8 5 8 8 8 9 10 22 21 17 8 9 10 12 10 9
5 5 5 4 4 4 5 7 6 6 8 7 9 21 22 15 9 9 10 11 12 11
5 5 4 5 5 4 4 5 5 5 7 8 8 21 22 13 8 8 10 9 13 13
4 4 4 5 5 4 4 5 4 6 6 12 9 19 21 14 6 8 7 9 10 19
3 4 4 4 4 4 5 4 5 5 6 7 10 12 21 20 8 6 6 7 7 8
Wind_Direction
333 328 325 333 336 334 344 334 340 336 334 327 335 335 339 321 331 338 197 185 172 183
328 330 324 326 337 337 337 336 332 333 335 336 7 356 341 347 335 336 314 205 194 215
318 321 326 333 339 339 333 338 338 344 351 357 9 354 359 347 342 344 333 255 195 204
326 324 334 339 333 343 334 339 341 341 16 9 5 358 354 353 354 346 327 338 263 210
331 335 339 348 335 349 338 339 339 22 17 17 6 359 357 346 344 337 332 332 336 333
336 334 336 351 346 353 342 342 6 29 21 15 8 5 352 340 335 328 327 328 330 327
331 328 332 349 358 350 355 357 62 42 26 12 11 6 352 341 337 336 340 319 321 336
325 333 347 356 6 355 16 21 63 36 26 18 20 2 355 346 350 350 352 17 20 42
340 354 2 9 18 3 28 36 46 31 17 14 17 1 0 359 1 23 33 24 12 12
343 4 24 14 23 18 8 48 56 28 17 7 11 7 7 358 22 34 37 29 15 17
349 11 19 32 20 16 12 38 46 26 13 9 6 8 14 0 31 40 41 40 25 24
350 24 49 12 21 18 25 30 44 30 12 9 5 9 17 12 16 35 38 37 36 24
2 43 54 53 45 34 38 37 33 23 16 13 1 10 20 19 15 33 27 29 33 25
20 108 71 60 49 50 49 50 39 24 6 14 10 5 21 28 25 18 31 29 24 26